EW6604 Weather Reports


Display with metric or nautical units.
time (UTC)temp
F
wind
direction
speed
MPH
gust
MPH
rain 1hr
in
rain 24hr
in
rain mn
in
humidity
%
barometer
mb
20260904071719 78 125 0.0 0.0 0.00 0.81 0.00 94 1013.9
20260904071224 78 125 0.0 0.0 0.00 0.81 0.00 94 1014.0
20260904070739 78 125 0.0 0.0 0.00 0.81 0.00 94 1014.0
20260904070224 78 125 0.0 0.0 0.00 0.81 0.00 94 1014.0
20260904065729 78 125 0.0 0.0 0.00 0.81 0.00 94 1014.0
20260904065217 78 125 0.0 0.0 0.00 0.81 0.00 94 1014.0
20260904064722 78 125 0.0 0.0 0.00 0.81 0.00 94 1014.1
20260904064207 78 125 0.0 0.0 0.00 0.81 0.00 94 1014.2
20260904063712 78 125 0.0 0.0 0.00 0.81 0.00 94 1014.2
20260904063217 78 125 0.0 0.0 0.00 0.81 0.00 94 1014.3
20260904062722 78 125 0.0 0.0 0.00 0.81 0.00 94 1014.2
20260904062207 78 125 0.0 0.0 0.00 0.81 0.00 94 1014.2
20260904061712 78 125 0.0 0.0 0.00 0.81 0.00 94 1014.2
20260904061217 78 125 0.0 0.0 0.00 0.81 0.00 94 1014.3
20260904060714 78 125 0.0 0.0 0.00 0.81 0.00 94 1014.3
20260904060219 78 125 0.0 0.0 0.00 0.81 0.00 94 1014.4
20260904055708 78 127 0.0 0.0 0.00 0.81 0.00 94 1014.6
20260904055213 78 127 0.0 0.0 0.00 0.81 0.00 94 1014.7
20260904054738 78 127 0.0 0.0 0.00 0.81 0.00 94 1014.7
20260904054222 78 128 0.0 0.0 0.00 0.81 0.00 94 1014.8
20260904053705 78 122 0.0 0.0 0.00 0.81 0.00 94 1014.8
20260904053209 78 124 0.0 0.0 0.00 0.81 0.00 94 1014.9
20260904052735 78 125 0.0 0.0 0.00 0.81 0.00 94 1015.0
20260904052240 78 129 0.0 0.0 0.00 0.81 0.00 94 1015.0
20260904051724 78 126 0.0 0.0 0.00 0.81 0.00 94 1015.0
20260904051208 78 125 0.0 0.0 0.00 0.81 0.00 94 1014.9
20260904050715 78 125 0.0 0.0 0.00 0.81 0.00 94 1015.0
20260904050222 78 125 0.0 0.0 0.00 0.81 0.00 94 1015.0
20260904045713 78 125 0.0 0.0 0.00 0.81 0.00 93 1015.0
20260904045218 78 125 0.0 1.0 0.00 0.81 0.00 93 1015.1
20260904044723 78 125 0.0 1.0 0.00 0.81 0.00 93 1015.0
20260904044228 78 129 0.0 1.0 0.00 0.81 0.00 93 1015.1
20260904043711 78 120 0.0 2.0 0.00 0.81 0.00 93 1015.2
20260904043216 78 126 0.0 0.0 0.00 0.81 0.00 93 1015.2
20260904042720 78 115 0.0 1.0 0.00 0.81 0.00 93 1015.1
20260904042205 78 120 0.0 1.0 0.00 0.81 0.00 93 1015.0
20260904041709 78 122 0.0 2.0 0.00 0.81 0.00 93 1015.0
20260904041214 78 106 0.0 2.0 0.00 0.81 0.00 93 1015.0
20260904040710 78 113 0.0 1.0 0.00 0.81 0.00 93 1014.9
20260903204717 84 359 6.0 8.0 0.00 1.00 0.81 86 1012.9
20260903204218 84 1 6.0 9.0 0.00 1.00 0.81 85 1012.9
20260903203716 84 13 4.0 9.0 0.00 1.00 0.81 85 1013.0
20260903203217 84 334 7.0 9.0 0.00 1.00 0.81 85 1013.1
20260903202732 84 39 4.0 5.0 0.00 1.00 0.81 86 1013.3
20260903202233 84 31 3.0 4.0 0.00 1.00 0.81 84 1013.4
20260903201717 84 31 2.0 4.0 0.00 1.00 0.81 83 1013.5
20260903201241 84 22 3.0 4.0 0.00 1.00 0.81 82 1013.6
20260903200714 84 357 3.0 4.0 0.00 1.00 0.81 82 1013.6
20260903200216 84 18 0.0 2.0 0.00 1.40 0.81 83 1013.6
20260903195719 83 8 1.0 2.0 0.00 1.40 0.81 82 1013.7
20260903195224 83 23 1.0 2.0 0.00 1.40 0.81 83 1013.9
20260903194709 83 23 0.0 2.0 0.00 1.40 0.81 85 1013.9
20260903194213 82 24 1.0 3.0 0.00 1.40 0.81 84 1014.0
20260903193715 81 23 1.0 4.0 0.00 1.40 0.81 86 1014.2
20260903193221 81 21 3.0 4.0 0.00 1.40 0.81 86 1014.3
20260903192709 81 30 3.0 3.0 0.01 1.40 0.81 88 1014.3
20260903192218 81 30 2.0 2.0 0.02 1.40 0.81 88 1014.2
20260903191721 81 43 2.0 3.0 0.03 1.40 0.81 89 1014.3
20260903191223 81 61 2.0 3.0 0.03 1.40 0.81 89 1014.3
20260903190720 81 68 1.0 2.0 0.03 1.40 0.81 90 1014.3
20260903190205 81 196 0.0 2.0 0.03 1.40 0.81 90 1014.3
20260903185710 80 198 1.0 2.0 0.03 1.40 0.81 90 1014.4
20260903185215 80 127 1.0 2.0 0.03 1.40 0.81 90 1014.5
20260903184719 80 96 1.0 2.0 0.03 1.40 0.81 91 1014.4
20260903184224 80 120 1.0 5.0 0.03 1.40 0.81 91 1014.4
20260903183729 80 96 1.0 5.0 0.03 1.40 0.81 91 1014.4
20260903183213 80 122 3.0 7.0 0.03 1.40 0.81 91 1014.5
20260903182721 81 111 4.0 7.0 0.02 1.39 0.80 91 1014.5
20260903182225 81 86 2.0 4.0 0.01 1.38 0.79 91 1014.6
20260903181710 81 35 2.0 4.0 0.00 1.37 0.78 90 1014.8
20260903181215 81 28 3.0 4.0 0.00 1.37 0.78 90 1015.0
20260903180711 81 35 1.0 2.0 0.00 1.37 0.78 90 1015.0
20260903180216 81 35 2.0 2.0 0.00 1.38 0.78 90 1015.2
20260903175719 81 39 1.0 2.0 0.00 1.38 0.78 90 1015.1
20260903175221 80 81 0.0 2.0 0.00 1.38 0.78 91 1015.2
20260903174706 80 82 2.0 2.0 0.00 1.38 0.78 91 1015.1
20260903174211 80 85 1.0 2.0 0.00 1.38 0.78 91 1015.0
20260903173717 80 21 1.0 2.0 0.00 1.38 0.78 91 1015.1
20260903173241 79 357 2.0 3.0 0.00 1.38 0.78 92 1015.1
20260903172708 79 333 2.0 4.0 0.00 1.38 0.78 92 1015.2
20260903172213 79 311 2.0 4.0 0.01 1.38 0.78 92 1015.2
20260903171718 79 313 1.0 2.0 0.01 1.38 0.78 93 1015.3
20260903171223 79 290 1.0 4.0 0.03 1.38 0.78 93 1015.3
20260903170708 79 194 0.0 5.0 0.10 1.38 0.78 93 1015.4
20260903170214 79 243 3.0 5.0 0.16 1.65 0.78 94 1015.6
20260903165737 78 286 2.0 7.0 0.24 1.65 0.78 94 1015.7
20260903165240 78 279 4.0 7.0 0.34 1.65 0.78 94 1015.8
20260903164724 78 288 1.0 3.0 0.40 1.65 0.78 93 1015.9
20260903164208 78 133 1.0 3.0 0.51 1.65 0.78 93 1016.0
20260903163713 78 192 0.0 3.0 0.55 1.65 0.78 94 1016.1
20260903163219 78 278 0.0 3.0 0.60 1.65 0.78 94 1016.1
20260903162707 78 139 0.0 2.0 0.71 1.65 0.78 94 1016.1
20260903162211 77 240 0.0 3.0 0.76 1.64 0.77 93 1016.2
20260903161716 77 201 1.0 3.0 0.76 1.64 0.77 93 1016.2
20260903161220 77 196 1.0 2.0 0.73 1.61 0.74 92 1016.2
20260903160717 78 194 1.0 2.0 0.67 1.55 0.68 92 1016.1
20260903160218 78 191 1.0 5.0 0.62 1.49 0.62 92 1016.1
20260903155722 78 191 1.0 11.0 0.51 1.69 0.51 92 1016.1
20260903155207 78 99 7.0 11.0 0.44 1.62 0.44 92 1016.0
20260903154732 78 89 6.0 7.0 0.36 1.54 0.36 92 1016.1
20260903154236 78 73 4.0 8.0 0.27 1.45 0.28 92 1016.0
20260903153720 78 77 2.0 10.0 0.23 1.41 0.23 92 1016.0
20260903153224 79 96 5.0 13.0 0.17 1.35 0.17 92 1016.1
20260903152713 80 101 8.0 15.0 0.07 1.25 0.07 92 1016.1
20260903152218 80 85 10.0 13.0 0.01 1.19 0.01 92 1016.0
20260903151723 80 76 5.0 8.0 0.01 1.19 0.01 91 1016.0
20260903151208 80 59 5.0 9.0 0.01 1.19 0.01 91 1015.9
20260903150733 80 41 7.0 10.0 0.00 1.18 0.00 91 1015.9
20260903150218 80 43 8.0 10.0 0.00 1.18 0.00 90 1015.8
20260903145721 80 43 8.0 12.0 0.00 1.20 0.00 90 1015.6
20260903145206 81 36 10.0 17.0 0.00 1.20 0.00 89 1015.5
20260903144711 82 50 11.0 17.0 0.00 1.20 0.00 86 1015.5
20260903144215 84 42 6.0 11.0 0.00 1.20 0.00 85 1015.5
20260903143720 84 54 1.0 3.0 0.00 1.20 0.00 85 1015.5
20260903143246 84 54 1.0 3.0 0.00 1.20 0.00 85 1015.4
20260903142713 84 63 1.0 2.0 0.00 1.20 0.00 85 1015.4
20260903142218 84 73 2.0 2.0 0.00 1.20 0.00 85 1015.4
20260903141723 84 74 1.0 2.0 0.00 1.20 0.00 85 1015.4
20260903141208 84 80 1.0 2.0 0.00 1.20 0.00 86 1015.4
20260903140725 84 74 1.0 2.0 0.00 1.20 0.00 88 1015.4
20260903140210 84 54 2.0 2.0 0.00 1.20 0.00 88 1015.4
20260903135715 83 71 0.0 2.0 0.00 1.20 0.00 89 1015.5
20260903135218 83 71 1.0 4.0 0.00 1.20 0.00 89 1015.5
20260903134723 83 81 3.0 4.0 0.00 1.20 0.00 89 1015.5
20260903134208 83 64 1.0 3.0 0.00 1.20 0.00 90 1015.5
20260903133713 83 49 2.0 3.0 0.00 1.20 0.00 90 1015.6
20260903133222 82 45 2.0 5.0 0.00 1.20 0.00 90 1015.6
20260903132707 82 25 4.0 5.0 0.00 1.20 0.00 90 1015.6
20260903132211 82 59 2.0 4.0 0.00 1.20 0.00 90 1015.6
20260903131716 82 56 3.0 6.0 0.00 1.20 0.00 90 1015.5
20260903131220 82 55 4.0 6.0 0.00 1.20 0.00 91 1015.5
20260903130722 82 53 3.0 4.0 0.00 1.20 0.00 91 1015.4
20260903130207 82 56 2.0 3.0 0.00 1.20 0.00 91 1015.4
20260903125711 81 58 1.0 3.0 0.00 1.20 0.00 91 1015.3
20260903125216 81 56 2.0 3.0 0.00 1.20 0.00 91 1015.3
20260903124720 81 57 1.0 3.0 0.00 1.20 0.00 91 1015.4
20260903124209 81 59 2.0 3.0 0.00 1.20 0.00 91 1015.4
20260903123714 81 59 1.0 3.0 0.00 1.20 0.00 90 1015.4
20260903123220 81 59 2.0 3.0 0.00 1.20 0.00 90 1015.4
20260903122724 82 63 1.0 3.0 0.00 1.20 0.00 90 1015.4
20260903122209 81 66 1.0 4.0 0.00 1.20 0.00 91 1015.4
20260903121714 81 61 2.0 4.0 0.00 1.20 0.00 91 1015.3
20260903121218 80 60 2.0 4.0 0.00 1.20 0.00 92 1015.3
20260903120714 80 60 3.0 3.0 0.00 1.20 0.00 92 1015.2
20260903120219 80 61 2.0 3.0 0.00 1.20 0.00 92 1015.2
20260903115724 80 81 0.0 2.0 0.00 1.20 0.00 92 1015.3
20260903115209 80 82 1.0 2.0 0.00 1.20 0.00 92 1015.3
20260903114718 80 74 2.0 4.0 0.00 1.20 0.00 93 1015.2
20260903114244 79 64 3.0 4.0 0.00 1.20 0.00 93 1015.0
20260903113707 79 62 2.0 4.0 0.00 1.20 0.00 93 1014.9
20260903113212 79 57 2.0 5.0 0.00 1.20 0.00 93 1014.9
20260903112717 79 56 3.0 5.0 0.00 1.20 0.00 93 1014.8
20260903112222 79 64 2.0 3.0 0.00 1.20 0.00 94 1014.8
20260903111707 79 58 1.0 3.0 0.00 1.20 0.00 94 1014.7
20260903111211 79 56 2.0 3.0 0.00 1.20 0.00 94 1014.6
20260903110716 79 64 2.0 3.0 0.00 1.20 0.00 94 1014.6
20260903110241 79 66 2.0 3.0 0.00 1.20 0.00 94 1014.5
20260903105724 79 68 1.0 2.0 0.00 1.20 0.00 94 1014.5
20260903105208 78 67 2.0 3.0 0.00 1.20 0.00 94 1014.5
20260903104717 79 65 2.0 3.0 0.00 1.20 0.00 94 1014.4
20260903104222 79 74 1.0 2.0 0.00 1.20 0.00 94 1014.3
20260903103707 79 77 1.0 2.0 0.00 1.20 0.00 94 1014.2
20260903103212 79 72 2.0 3.0 0.00 1.20 0.00 94 1014.1
20260903102717 79 74 2.0 3.0 0.00 1.20 0.00 94 1014.1
20260903102222 79 69 2.0 3.0 0.00 1.20 0.00 94 1014.1
20260903101707 79 80 2.0 2.0 0.00 1.20 0.00 94 1014.0
20260903101212 79 71 1.0 2.0 0.00 1.20 0.00 94 1013.9
20260903100709 79 70 2.0 4.0 0.00 1.20 0.00 94 1013.9
20260903100213 79 66 2.0 4.0 0.00 1.20 0.00 94 1013.8
20260903095717 79 65 3.0 3.0 0.00 1.20 0.00 94 1013.8
20260903095222 79 54 2.0 3.0 0.00 1.20 0.00 94 1013.7
20260903094707 79 36 2.0 3.0 0.00 1.20 0.00 94 1013.7
20260903094212 79 31 2.0 4.0 0.00 1.20 0.00 94 1013.7
20260903093737 79 32 3.0 4.0 0.00 1.20 0.00 94 1013.8
20260903093222 79 36 3.0 4.0 0.00 1.20 0.00 94 1013.7
20260903092706 79 42 2.0 3.0 0.00 1.20 0.00 94 1013.7
20260903092211 79 42 2.0 3.0 0.00 1.20 0.00 94 1013.6
20260903091737 79 44 0.0 2.0 0.00 1.20 0.00 94 1013.7
20260903091220 79 44 1.0 3.0 0.00 1.20 0.00 94 1013.8
20260903090709 79 47 2.0 3.0 0.00 1.20 0.00 94 1013.7
20260903090214 79 47 2.0 3.0 0.00 1.20 0.00 94 1013.8
20260903085738 79 48 1.0 2.0 0.00 1.20 0.00 94 1013.8
20260903085242 79 32 1.0 2.0 0.00 1.20 0.00 94 1013.8
20260903084707 79 32 2.0 2.0 0.00 1.20 0.00 94 1013.8
20260903084231 79 31 2.0 2.0 0.00 1.20 0.00 94 1013.8
20260903083736 79 44 0.0 2.0 0.00 1.20 0.00 94 1013.8
20260903083220 79 44 1.0 3.0 0.00 1.20 0.00 94 1013.8
20260903082724 79 47 2.0 3.0 0.00 1.20 0.00 94 1013.7
20260903082209 79 63 1.0 3.0 0.00 1.20 0.00 94 1013.8
20260903081715 79 64 2.0 3.0 0.00 1.20 0.00 94 1013.7
20260903081219 79 50 2.0 3.0 0.00 1.20 0.00 94 1013.7
20260903080716 79 47 1.0 3.0 0.00 1.20 0.00 94 1013.6
20260903080221 79 47 2.0 3.0 0.00 1.20 0.00 93 1013.7
20260903075746 79 47 2.0 2.0 0.00 1.20 0.00 93 1013.6
20260903075215 80 47 1.0 2.0 0.00 1.20 0.00 93 1013.6
20260903074719 79 47 1.0 3.0 0.00 1.20 0.00 93 1013.7
20260903074224 80 47 2.0 3.0 0.00 1.20 0.00 93 1013.8
20260903073710 80 61 1.0 2.0 0.00 1.20 0.00 93 1013.9
20260903073214 79 53 0.0 1.0 0.00 1.20 0.00 93 1014.0
20260903072718 80 52 0.0 2.0 0.00 1.20 0.00 93 1014.0
20260903072223 80 48 2.0 3.0 0.00 1.20 0.00 93 1014.1